This is the latest recevied weather packets stored in our database for station/object KB4MOX. If no packets are shown the sender has not sent any weather packets the latest 10 day(s).
| Time | Temp. | Humidity | Pressure | Rain* | Wind** | Luminosity | Snow |
|---|---|---|---|---|---|---|---|
| 1788379259 | 36.11° C | 46% | 1017.5 hPa | 0 mm | - | 505 W/m² | - |
| 1788378955 | 36.11° C | 46% | 1017.4 hPa | 0 mm | - | 606 W/m² | - |
| 1788378654 | 36.67° C | 44% | 1017.3 hPa | 0 mm | - | 445 W/m² | - |
| 1788378353 | 35.56° C | 44% | 1017.5 hPa | 0 mm | - | 632 W/m² | - |
| 1788378049 | 35.56° C | 45% | 1017.6 hPa | 0 mm | - | 662 W/m² | - |
| 1788377745 | 36.11° C | 44% | 1017.8 hPa | 0 mm | - | 566 W/m² | - |
| 1788377444 | 35.56° C | 46% | 1017.9 hPa | 0 mm | - | 542 W/m² | - |
| 1788377143 | 35° C | 48% | 1017.9 hPa | 0 mm | - | 440 W/m² | - |
| 1788376842 | 35° C | 47% | 1017.9 hPa | 0 mm | - | 340 W/m² | - |
| 1788376537 | 35.56° C | 47% | 1017.8 hPa | 0 mm | - | 245 W/m² | - |
| 1788376232 | 35.56° C | 46% | 1018.1 hPa | 0 mm | - | 334 W/m² | - |
| 1788375927 | 35.56° C | 45% | 1017.9 hPa | 0 mm | - | 347 W/m² | - |
| 1788375623 | 35.56° C | 45% | 1018.1 hPa | 0 mm | - | 384 W/m² | - |
| 1788375319 | 35° C | 46% | 1018.2 hPa | 0 mm | - | 385 W/m² | - |
| 1788375015 | 35° C | 47% | 1018.2 hPa | 0 mm | - | 470 W/m² | - |
| 1788374709 | 35° C | 49% | 1018.4 hPa | 0 mm | - | 325 W/m² | - |
| 1788374404 | 35° C | 49% | 1018.4 hPa | 0 mm | - | 389 W/m² | - |
| 1788374101 | 35.56° C | 47% | 1018.3 hPa | 0 mm | - | 686 W/m² | - |
| 1788373797 | 35° C | 47% | 1018.5 hPa | 0 mm | - | 603 W/m² | - |
| 1788373493 | 35° C | 47% | 1018.5 hPa | 0 mm | - | 531 W/m² | - |
| 1788373188 | 35° C | 47% | 1018.5 hPa | 0 mm | - | 654 W/m² | - |
| 1788372884 | 35.56° C | 47% | 1018.6 hPa | 0 mm | - | 587 W/m² | - |
| 1788372578 | 35.56° C | 46% | 1018.6 hPa | 0 mm | - | 670 W/m² | - |
| 1788372274 | 35.56° C | 46% | 1018.9 hPa | 0 mm | - | 592 W/m² | - |
| 1788371970 | 36.11° C | 46% | 1018.6 hPa | 0 mm | - | 803 W/m² | - |
* Rain latest hour (hover to see other rain measurements)
** Current wind speed in m/s (hover to see current wind gust speed)